DW5595 Weather Reports


Display with metric or nautical units.
time (UTC)temp
F
wind
direction
speed
MPH
gust
MPH
rain 1hr
in
rain 24hr
in
rain mn
in
humidity
%
barometer
mb
20260502221513 63 327 2.0 4.0 0.00 0.00 0.00 44 1011.0
20260502220013 63 311 0.0 3.0 0.00 0.00 0.00 43 1011.0
20260502214514 64 323 3.0 7.0 0.00 0.00 0.00 42 1010.7
20260502213014 63 319 2.0 7.0 0.00 0.00 0.00 44 1010.7
20260502211514 63 5 3.0 5.0 0.00 0.00 0.00 43 1010.7
20260502210014 62 29 2.0 6.0 0.00 0.00 0.00 42 1010.8
20260502204523 63 347 3.0 6.0 0.00 0.00 0.00 44 1010.8
20260502203018 62 30 1.0 7.0 0.00 0.00 0.00 41 1010.7
20260502201517 62 336 2.0 5.0 0.00 0.00 0.00 40 1011.0
20260502200015 61 360 3.0 8.0 0.00 0.00 0.00 40 1011.2
20260502194518 62 10 6.0 10.0 0.00 0.00 0.00 40 1011.4
20260502193023 61 9 4.0 9.0 0.00 0.00 0.00 40 1011.6
20260502191521 61 21 3.0 5.0 0.00 0.00 0.00 42 1011.6
20260502190018 61 142 1.0 4.0 0.00 0.00 0.00 49 1011.9
20260502184526 60 352 1.0 5.0 0.00 0.00 0.00 48 1012.0
20260502183017 60 168 0.0 4.0 0.00 0.00 0.00 48 1012.2
20260502181515 60 15 1.0 3.0 0.00 0.00 0.00 48 1012.3
20260502161510 55 23 2.0 6.0 0.00 0.00 0.00 51 1014.0
20260502151523 54 20 2.0 5.0 0.00 0.00 0.00 54 1013.9
20260502123007 54 27 3.0 7.0 0.00 0.00 0.00 72 1013.1
20260502114522 53 339 0.0 0.0 0.00 0.00 0.00 84 1012.4
20260502113019 53 339 0.0 0.0 0.00 0.00 0.00 85 1013.1
20260502111518 53 344 0.0 0.0 0.00 0.00 0.00 88 1012.6
20260502110015 52 344 0.0 0.0 0.00 0.00 0.00 87 1012.4
20260502103026 52 326 0.0 0.0 0.00 0.00 0.00 90 1012.1
20260502101526 52 326 0.0 0.0 0.00 0.00 0.00 90 1012.2
20260502091529 52 319 0.0 0.0 0.00 0.00 0.00 93 1012.5
20260502071517 52 169 0.0 0.0 0.00 0.00 0.00 92 1011.6
20260502070028 52 169 0.0 0.0 0.00 0.00 0.00 92 1011.6
20260502064524 52 169 0.0 0.0 0.00 0.00 0.00 91 1011.6
20260502063026 52 333 0.0 0.0 0.00 0.00 0.00 92 1011.8
20260502060022 52 140 0.0 0.0 0.00 0.00 0.00 90 1011.8
20260502054519 52 140 0.0 0.0 0.00 0.00 0.00 90 1012.1
20260502053016 52 140 0.0 0.0 0.00 0.00 0.00 90 1012.1
20260502051510 52 140 0.0 0.0 0.00 0.00 0.00 89 1012.2
20260502050009 52 140 0.0 0.0 0.00 0.00 0.00 90 1012.1
20260502044529 52 140 0.0 0.0 0.00 0.00 0.00 89 1012.2
20260502043022 52 140 0.0 0.0 0.00 0.00 0.00 89 1012.4
20260502041521 53 140 0.0 0.0 0.00 0.00 0.00 89 1012.4
20260502040020 53 140 0.0 0.0 0.00 0.00 0.00 88 1012.4
20260502034514 53 140 0.0 0.0 0.00 0.00 0.00 87 1012.6
20260502033013 53 140 0.0 0.0 0.00 0.00 0.00 87 1012.7
20260502031525 53 140 0.0 0.0 0.00 0.00 0.00 87 1012.8
20260502030026 53 140 0.0 0.0 0.00 0.00 0.00 85 1012.9
20260502024523 54 140 0.0 0.0 0.00 0.00 0.00 85 1013.0
20260502023029 54 140 0.0 0.0 0.00 0.00 0.00 83 1013.1
20260502020024 55 140 0.0 0.0 0.00 0.00 0.00 81 1012.7
20260502014511 56 140 0.0 0.0 0.00 0.00 0.00 80 1012.6
20260502013025 56 140 0.0 0.0 0.00 0.00 0.00 80 1012.5
20260502011523 57 140 0.0 2.0 0.00 0.00 0.00 75 1012.5
20260502010022 57 140 0.0 1.0 0.00 0.00 0.00 75 1012.3
20260502003019 59 140 0.0 0.0 0.00 0.00 0.00 72 1012.1
20260502001516 60 140 0.0 0.0 0.00 0.00 0.00 66 1011.7
20260501234525 62 165 0.0 2.0 0.00 0.00 0.00 60 1011.4
20260501233032 63 115 1.0 3.0 0.00 0.00 0.00 60 1010.9
20260501231524 64 148 2.0 5.0 0.00 0.00 0.00 56 1011.0
20260501230024 64 188 2.0 4.0 0.00 0.00 0.00 55 1011.4
20260501223018 64 190 0.0 6.0 0.00 0.00 0.00 54 1011.4